TAP035 LPPT-SBFZ

Flight info

Callsign TAP035
Flight time 7h 29m
Altitude 37000
Route BEVOP DCT BAROK UN873 BENTU/N0470F390 UN873 SAMAR N873 ODEGI/N0475F380 N873 ISOKA/N0474F400 N873 IPERA UW43 SVT UW46 KEPAS UN741 JOBER DCT FLZ
Aircraft A332/H-SDE1E2E3FGHIJ2J3J5M1P2RWXYZ/LB1D1

Departure

Time 2026-05-05 14:28
Airport Lisbon Humberto Delgado Airport (LPPT)

Arrival

Time 2026-05-05 21:57
Airport Pinto Martins International Airport (SBFZ)
Time Latitude Longitude Altitude Speed Heading
2026-05-05 14:11 38.77139 -9.13602 353 ft 0 kts 202°
2026-05-05 14:20 38.77153 -9.13595 353 ft 4 kts 203°
2026-05-05 14:21 38.77178 -9.13581 361 ft 4 kts 201°
2026-05-05 14:21 38.77202 -9.13568 356 ft 4 kts 219°
2026-05-05 14:21 38.77218 -9.13542 352 ft 4 kts 251°
2026-05-05 14:21 38.77222 -9.13526 351 ft 1 kts 257°
2026-05-05 14:22 38.77222 -9.13524 351 ft 1 kts 257°
2026-05-05 14:24 38.77221 -9.13529 351 ft 3 kts 257°
2026-05-05 14:24 38.77212 -9.13581 355 ft 9 kts 258°
2026-05-05 14:24 38.77196 -9.13680 362 ft 12 kts 257°
2026-05-05 14:25 38.77179 -9.13778 364 ft 11 kts 258°
2026-05-05 14:25 38.77159 -9.13868 364 ft 12 kts 239°
2026-05-05 14:25 38.77071 -9.13931 362 ft 18 kts 204°
2026-05-05 14:25 38.76948 -9.13998 351 ft 20 kts 203°
2026-05-05 14:26 38.76809 -9.14072 355 ft 23 kts 203°
2026-05-05 14:26 38.76661 -9.14151 351 ft 23 kts 202°
2026-05-05 14:26 38.76600 -9.14253 351 ft 13 kts 286°
2026-05-05 14:26 38.76639 -9.14365 336 ft 14 kts 298°
2026-05-05 14:27 38.76672 -9.14377 339 ft 0 kts 27°
2026-05-05 14:27 38.76675 -9.14375 336 ft 4 kts 27°
2026-05-05 14:27 38.76862 -9.14268 356 ft 57 kts 22°
2026-05-05 14:27 38.77389 -9.13992 371 ft 106 kts 23°
2026-05-05 14:28 38.78213 -9.13551 377 ft 149 kts 23°
2026-05-05 14:28 38.79241 -9.12955 645 ft 167 kts 20°
2026-05-05 14:28 38.80243 -9.12245 1346 ft 168 kts 25°
2026-05-05 14:28 38.81295 -9.11419 1653 ft 186 kts 25°
2026-05-05 14:29 38.82490 -9.10520 1804 ft 213 kts 25°
2026-05-05 14:29 38.83854 -9.09536 2092 ft 237 kts 23°
2026-05-05 14:29 38.85333 -9.08486 2790 ft 245 kts 25°
2026-05-05 14:29 38.86792 -9.07296 3448 ft 254 kts 37°
2026-05-05 14:30 38.87868 -9.05485 4201 ft 264 kts 63°
2026-05-05 14:30 38.88253 -9.03140 4949 ft 272 kts 83°
2026-05-05 14:30 38.88165 -9.00705 5715 ft 278 kts 102°
2026-05-05 14:30 38.87252 -8.98496 6497 ft 285 kts 131°
2026-05-05 14:31 38.85656 -8.96981 7185 ft 293 kts 155°
2026-05-05 14:31 38.83676 -8.96412 7955 ft 292 kts 181°
2026-05-05 14:31 38.81641 -8.96588 8669 ft 295 kts 191°
2026-05-05 14:31 38.79618 -8.97083 9446 ft 298 kts 195°
2026-05-05 14:32 38.77591 -8.97685 10123 ft 301 kts 196°
2026-05-05 14:32 38.75512 -8.98362 10510 ft 317 kts 197°
2026-05-05 14:32 38.73315 -8.99112 10755 ft 336 kts 198°
2026-05-05 14:32 38.70999 -8.99921 11010 ft 355 kts 198°
2026-05-05 14:33 38.68562 -9.00778 11249 ft 372 kts 198°
2026-05-05 14:33 38.66024 -9.01674 11605 ft 383 kts 198°
2026-05-05 14:33 38.63438 -9.02587 12165 ft 388 kts 198°
2026-05-05 14:33 38.60824 -9.03509 12762 ft 391 kts 198°
2026-05-05 14:34 38.58190 -9.04440 13377 ft 394 kts 199°
2026-05-05 14:34 38.55540 -9.05376 13958 ft 397 kts 199°
2026-05-05 14:34 38.52867 -9.06320 14502 ft 399 kts 198°
2026-05-05 14:34 38.50184 -9.07268 15075 ft 401 kts 198°
2026-05-05 14:35 38.47489 -9.08218 15622 ft 403 kts 199°
2026-05-05 14:35 38.44776 -9.09175 16193 ft 406 kts 198°
2026-05-05 14:35 38.42047 -9.10136 16725 ft 408 kts 198°
2026-05-05 14:35 38.39306 -9.11101 17268 ft 410 kts 198°
2026-05-05 14:36 38.36553 -9.12070 17780 ft 412 kts 198°
2026-05-05 14:36 38.33817 -9.13032 18320 ft 414 kts 198°
2026-05-05 14:36 38.30994 -9.14023 18767 ft 416 kts 198°
2026-05-05 14:36 38.28193 -9.15007 19196 ft 418 kts 198°
2026-05-05 14:37 38.25424 -9.15978 19638 ft 420 kts 198°
2026-05-05 14:37 38.22597 -9.16968 20061 ft 422 kts 198°
2026-05-05 14:37 38.19776 -9.17956 20472 ft 425 kts 198°
2026-05-05 14:37 38.16923 -9.18954 20891 ft 427 kts 198°
2026-05-05 14:38 38.14032 -9.19965 21313 ft 429 kts 198°
2026-05-05 14:38 38.11156 -9.20969 21730 ft 430 kts 198°
2026-05-05 14:38 38.08260 -9.21980 22128 ft 433 kts 198°
2026-05-05 14:38 38.05351 -9.22995 22533 ft 435 kts 198°
2026-05-05 14:39 38.02439 -9.24010 22918 ft 437 kts 198°
2026-05-05 14:39 37.99502 -9.25032 23307 ft 439 kts 198°
2026-05-05 14:39 37.96538 -9.26063 23685 ft 441 kts 199°
2026-05-05 14:39 37.93572 -9.27094 24014 ft 442 kts 199°
2026-05-05 14:40 37.90599 -9.28126 24345 ft 444 kts 199°
2026-05-05 14:40 37.87619 -9.29160 24679 ft 445 kts 199°
2026-05-05 14:40 37.84626 -9.30198 25015 ft 446 kts 199°
2026-05-05 14:40 37.81635 -9.31234 25335 ft 447 kts 199°
2026-05-05 14:41 37.78630 -9.32274 25659 ft 448 kts 199°
2026-05-05 14:41 37.75615 -9.33317 25965 ft 450 kts 199°
2026-05-05 14:41 37.72592 -9.34362 26287 ft 451 kts 200°
2026-05-05 14:41 37.69566 -9.35406 26597 ft 452 kts 200°
2026-05-05 14:42 37.66524 -9.36456 26902 ft 453 kts 200°
2026-05-05 14:42 37.63490 -9.37501 27209 ft 454 kts 200°
2026-05-05 14:42 37.60426 -9.38560 27506 ft 455 kts 200°
2026-05-05 14:42 37.57388 -9.39679 27783 ft 456 kts 201°
2026-05-05 14:43 37.54363 -9.40861 28137 ft 455 kts 202°
2026-05-05 14:43 37.51349 -9.42070 28434 ft 456 kts 202°
2026-05-05 14:43 37.48318 -9.43297 28701 ft 457 kts 202°
2026-05-05 14:43 37.45328 -9.44505 28966 ft 459 kts 202°
2026-05-05 14:44 37.42281 -9.45728 29229 ft 460 kts 202°
2026-05-05 14:44 37.39232 -9.46945 29582 ft 459 kts 202°
2026-05-05 14:44 37.36199 -9.48147 30035 ft 457 kts 202°
2026-05-05 14:44 37.33175 -9.49342 30396 ft 454 kts 201°
2026-05-05 14:45 37.30162 -9.50531 30592 ft 456 kts 202°
2026-05-05 14:45 37.27122 -9.51732 30809 ft 457 kts 202°
2026-05-05 14:45 37.24091 -9.52928 31097 ft 456 kts 202°
2026-05-05 14:45 37.21068 -9.54119 31419 ft 455 kts 202°
2026-05-05 14:46 37.18044 -9.55310 31707 ft 455 kts 202°
2026-05-05 14:46 37.15030 -9.56496 31986 ft 454 kts 202°
2026-05-05 14:46 37.12019 -9.57680 32266 ft 454 kts 202°
2026-05-05 14:46 37.09010 -9.58862 32544 ft 453 kts 202°
2026-05-05 14:47 37.05996 -9.60046 32751 ft 454 kts 201°
2026-05-05 14:47 37.02983 -9.61229 32958 ft 454 kts 201°
2026-05-05 14:47 36.99977 -9.62407 33229 ft 453 kts 201°
2026-05-05 14:47 36.96970 -9.63585 33510 ft 453 kts 201°
2026-05-05 14:48 36.93961 -9.64762 33766 ft 452 kts 201°
2026-05-05 14:48 36.90960 -9.65935 34030 ft 452 kts 201°
2026-05-05 14:48 36.87960 -9.67107 34248 ft 451 kts 201°
2026-05-05 14:48 36.84968 -9.68275 34456 ft 451 kts 201°
2026-05-05 14:49 36.81975 -9.69442 34679 ft 450 kts 201°
2026-05-05 14:49 36.78993 -9.70604 34921 ft 448 kts 201°
2026-05-05 14:49 36.76019 -9.71762 35114 ft 448 kts 201°
2026-05-05 14:49 36.73039 -9.72921 35310 ft 448 kts 201°
2026-05-05 14:50 36.70068 -9.74077 35483 ft 448 kts 201°
2026-05-05 14:50 36.67092 -9.75234 35677 ft 448 kts 201°
2026-05-05 14:50 36.64117 -9.76388 35860 ft 447 kts 201°
2026-05-05 14:50 36.61151 -9.77539 36037 ft 447 kts 201°
2026-05-05 14:51 36.58179 -9.78691 36198 ft 447 kts 201°
2026-05-05 14:51 36.55220 -9.79836 36449 ft 445 kts 201°
2026-05-05 14:51 36.52266 -9.80978 36651 ft 444 kts 201°
2026-05-05 14:51 36.49357 -9.82103 36803 ft 444 kts 201°
2026-05-05 14:52 36.46408 -9.83242 36956 ft 444 kts 201°
2026-05-05 14:52 36.43452 -9.84384 37078 ft 445 kts 201°
2026-05-05 14:52 36.37526 -9.86671 37121 ft 446 kts 201°
2026-05-05 14:53 36.31597 -9.88951 37115 ft 445 kts 201°
2026-05-05 14:53 36.25690 -9.91221 37136 ft 444 kts 201°
2026-05-05 14:54 36.19780 -9.93488 37118 ft 444 kts 201°
2026-05-05 14:54 36.13872 -9.95752 37129 ft 444 kts 201°
2026-05-05 14:55 36.07965 -9.98011 37098 ft 444 kts 201°
2026-05-05 14:55 36.02060 -10.00266 37124 ft 444 kts 201°
2026-05-05 14:56 35.96352 -10.03052 37123 ft 438 kts 212°
2026-05-05 14:56 35.91311 -10.07216 37120 ft 436 kts 219°
2026-05-05 14:57 35.86465 -10.11702 37125 ft 435 kts 220°
2026-05-05 14:57 35.81647 -10.16236 37115 ft 436 kts 220°
2026-05-05 14:58 35.76816 -10.20745 37124 ft 436 kts 219°
2026-05-05 14:58 35.71964 -10.25240 37119 ft 437 kts 219°
2026-05-05 14:59 35.67089 -10.29738 37121 ft 438 kts 219°
2026-05-05 14:59 35.62220 -10.34224 37124 ft 438 kts 219°
2026-05-05 15:00 35.58172 -10.37949 37129 ft 437 kts 219°
2026-05-05 15:00 35.52478 -10.43182 37129 ft 437 kts 219°
2026-05-05 15:01 35.47606 -10.47652 37128 ft 437 kts 219°
2026-05-05 15:01 35.42760 -10.52091 37128 ft 437 kts 219°
2026-05-05 15:02 35.37851 -10.56582 37129 ft 438 kts 219°
2026-05-05 15:02 35.33000 -10.61012 37128 ft 438 kts 219°
2026-05-05 15:03 35.28109 -10.65472 37111 ft 438 kts 219°
2026-05-05 15:03 35.23216 -10.69927 37126 ft 439 kts 219°
2026-05-05 15:04 35.18316 -10.74382 37127 ft 439 kts 219°
2026-05-05 15:04 35.13412 -10.78833 37128 ft 439 kts 219°
2026-05-05 15:05 35.06058 -10.85495 37124 ft 439 kts 219°
2026-05-05 15:06 35.01152 -10.89931 37127 ft 439 kts 219°
2026-05-05 15:06 34.97071 -10.93616 37128 ft 440 kts 219°
2026-05-05 15:07 34.92149 -10.98054 37128 ft 440 kts 219°
2026-05-05 15:07 34.87224 -11.02487 37127 ft 440 kts 219°
2026-05-05 15:08 34.82298 -11.06915 37127 ft 440 kts 219°
2026-05-05 15:08 34.77368 -11.11340 37128 ft 440 kts 219°
2026-05-05 15:09 34.72435 -11.15761 37110 ft 440 kts 219°
2026-05-05 15:09 34.67496 -11.20181 37129 ft 441 kts 219°
2026-05-05 15:10 34.62550 -11.24601 37120 ft 442 kts 219°
2026-05-05 15:10 34.57607 -11.29035 37121 ft 441 kts 219°
2026-05-05 15:11 34.52669 -11.33467 37126 ft 442 kts 219°
2026-05-05 15:11 34.47728 -11.37895 37121 ft 442 kts 219°
2026-05-05 15:12 34.42775 -11.42326 37119 ft 443 kts 219°
2026-05-05 15:12 34.37818 -11.46752 37119 ft 443 kts 219°
2026-05-05 15:13 34.32856 -11.51176 37125 ft 443 kts 219°
2026-05-05 15:13 34.27891 -11.55596 37134 ft 443 kts 219°
2026-05-05 15:14 34.22922 -11.60012 37119 ft 443 kts 219°
2026-05-05 15:14 34.17953 -11.64422 37122 ft 443 kts 219°
2026-05-05 15:15 34.13021 -11.68793 37120 ft 443 kts 219°
2026-05-05 15:15 34.08060 -11.73183 37122 ft 442 kts 219°
2026-05-05 15:16 34.03095 -11.77571 37122 ft 442 kts 219°
2026-05-05 15:16 33.98144 -11.81938 37446 ft 438 kts 219°
2026-05-05 15:16 33.95693 -11.84097 37724 ft 436 kts 219°
2026-05-05 15:17 33.93253 -11.86245 38005 ft 432 kts 219°
2026-05-05 15:17 33.90833 -11.88374 38278 ft 429 kts 219°
2026-05-05 15:17 33.88431 -11.90486 38528 ft 426 kts 219°
2026-05-05 15:17 33.86051 -11.92577 38810 ft 422 kts 219°
2026-05-05 15:18 33.83686 -11.94654 39029 ft 419 kts 219°
2026-05-05 15:18 33.78971 -11.98793 39116 ft 421 kts 219°
2026-05-05 15:19 33.74211 -12.02968 39119 ft 426 kts 219°
2026-05-05 15:19 33.69396 -12.07182 39118 ft 430 kts 219°
2026-05-05 15:20 33.64531 -12.11432 39121 ft 434 kts 219°
2026-05-05 15:20 33.59650 -12.15687 39117 ft 433 kts 219°
2026-05-05 15:21 33.54801 -12.19907 39119 ft 429 kts 219°
2026-05-05 15:21 33.49980 -12.24100 39119 ft 428 kts 219°
2026-05-05 15:22 33.45154 -12.28293 39119 ft 429 kts 219°
2026-05-05 15:22 33.40358 -12.32455 39121 ft 429 kts 219°
2026-05-05 15:23 33.35525 -12.36641 39123 ft 429 kts 219°
2026-05-05 15:23 33.30696 -12.40817 39116 ft 427 kts 220°
2026-05-05 15:24 33.25893 -12.44965 39120 ft 426 kts 219°
2026-05-05 15:24 33.21091 -12.49108 39121 ft 426 kts 219°
2026-05-05 15:25 33.16281 -12.53252 39122 ft 426 kts 219°
2026-05-05 15:25 33.11472 -12.57389 39116 ft 426 kts 219°
2026-05-05 15:26 33.06663 -12.61519 39120 ft 426 kts 219°
2026-05-05 15:26 33.01857 -12.65640 39108 ft 424 kts 220°
2026-05-05 15:27 32.97107 -12.69706 39116 ft 418 kts 220°
2026-05-05 15:27 32.92390 -12.73742 39116 ft 417 kts 220°
2026-05-05 15:28 32.87685 -12.77765 39126 ft 418 kts 220°
2026-05-05 15:28 32.82932 -12.81818 39119 ft 421 kts 220°
2026-05-05 15:29 32.78163 -12.85864 39114 ft 422 kts 219°
2026-05-05 15:29 32.73383 -12.89908 39117 ft 421 kts 219°
2026-05-05 15:30 32.68608 -12.93944 39116 ft 421 kts 219°
2026-05-05 15:30 32.63831 -12.97978 39117 ft 421 kts 219°
2026-05-05 15:31 32.59055 -13.02007 39118 ft 421 kts 219°
2026-05-05 15:31 32.54279 -13.06030 39111 ft 421 kts 219°
2026-05-05 15:32 32.49500 -13.10050 39112 ft 421 kts 219°
2026-05-05 15:32 32.44717 -13.14068 39100 ft 420 kts 220°
2026-05-05 15:33 32.40002 -13.18022 39115 ft 416 kts 220°
2026-05-05 15:33 32.35245 -13.22008 39110 ft 416 kts 220°
2026-05-05 15:34 32.30522 -13.25962 39107 ft 416 kts 220°
2026-05-05 15:34 32.25795 -13.29912 39107 ft 416 kts 220°
2026-05-05 15:35 32.21096 -13.33835 39102 ft 416 kts 220°
2026-05-05 15:35 32.16370 -13.37773 39104 ft 416 kts 220°
2026-05-05 15:36 32.11671 -13.41682 39103 ft 411 kts 220°
2026-05-05 15:36 32.07012 -13.45555 39103 ft 409 kts 220°
2026-05-05 15:37 32.02356 -13.49424 39100 ft 410 kts 220°
2026-05-05 15:37 31.97698 -13.53289 39100 ft 411 kts 220°
2026-05-05 15:38 31.93006 -13.57176 39103 ft 412 kts 220°
2026-05-05 15:38 31.88317 -13.61053 39101 ft 412 kts 220°
2026-05-05 15:39 31.83650 -13.64906 39096 ft 408 kts 220°
2026-05-05 15:39 31.79018 -13.68726 39098 ft 406 kts 220°
2026-05-05 15:40 31.74392 -13.72541 39095 ft 406 kts 220°
2026-05-05 15:40 31.69764 -13.76351 39096 ft 406 kts 220°
2026-05-05 15:41 31.65135 -13.80157 39092 ft 406 kts 220°
2026-05-05 15:41 31.60506 -13.83957 39089 ft 406 kts 220°
2026-05-05 15:42 31.55879 -13.87750 39082 ft 404 kts 220°
2026-05-05 15:42 31.51287 -13.91509 39086 ft 401 kts 220°
2026-05-05 15:43 31.46707 -13.95256 39085 ft 401 kts 220°
2026-05-05 15:43 31.42131 -13.98997 39088 ft 401 kts 220°
2026-05-05 15:44 31.37549 -14.02736 39088 ft 401 kts 220°
2026-05-05 15:44 31.32966 -14.06471 39085 ft 401 kts 220°
2026-05-05 15:45 31.28387 -14.10208 39068 ft 401 kts 221°
2026-05-05 15:45 31.23850 -14.13920 39087 ft 395 kts 221°
2026-05-05 15:46 31.19368 -14.17589 39091 ft 393 kts 221°
2026-05-05 15:46 31.14892 -14.21252 39085 ft 393 kts 221°
2026-05-05 15:47 31.10411 -14.24913 39088 ft 393 kts 221°
2026-05-05 15:47 31.05924 -14.28572 39087 ft 394 kts 221°
2026-05-05 15:48 31.01439 -14.32223 39065 ft 393 kts 221°
2026-05-05 15:48 30.96955 -14.35869 39073 ft 391 kts 221°
2026-05-05 15:49 30.92552 -14.39429 39078 ft 386 kts 220°
2026-05-05 15:49 30.87727 -14.42294 39078 ft 397 kts 209°
2026-05-05 15:50 30.82708 -14.44854 39078 ft 392 kts 214°
2026-05-05 15:50 30.77801 -14.47654 39075 ft 392 kts 214°
2026-05-05 15:51 30.72924 -14.50486 39075 ft 392 kts 214°
2026-05-05 15:51 30.68051 -14.53316 39064 ft 391 kts 215°
2026-05-05 15:52 30.63195 -14.56123 39075 ft 389 kts 215°
2026-05-05 15:52 30.58351 -14.58921 39077 ft 389 kts 215°
2026-05-05 15:53 30.53509 -14.61715 39072 ft 389 kts 214°
2026-05-05 15:53 30.48664 -14.64506 39072 ft 389 kts 214°
2026-05-05 15:54 30.44633 -14.66825 39070 ft 389 kts 214°
2026-05-05 15:54 30.39786 -14.69611 39049 ft 389 kts 215°
2026-05-05 15:55 30.34949 -14.72387 39070 ft 388 kts 214°
2026-05-05 15:55 30.30104 -14.75166 39067 ft 388 kts 214°
2026-05-05 15:56 30.25269 -14.77936 39067 ft 388 kts 214°
2026-05-05 15:56 30.20430 -14.80706 39064 ft 388 kts 214°
2026-05-05 15:57 30.15594 -14.83470 39064 ft 388 kts 214°
2026-05-05 15:57 30.10753 -14.86234 39056 ft 388 kts 214°
2026-05-05 15:58 30.05908 -14.88998 39061 ft 389 kts 215°
2026-05-05 15:58 30.01049 -14.91767 39061 ft 390 kts 215°
2026-05-05 15:59 29.96195 -14.94529 39060 ft 390 kts 214°
2026-05-05 15:59 29.91331 -14.97294 39062 ft 389 kts 214°
2026-05-05 16:00 29.86485 -15.00045 39063 ft 389 kts 214°
2026-05-05 16:00 29.81629 -15.02800 39065 ft 389 kts 214°
2026-05-05 16:01 29.76764 -15.05556 39062 ft 389 kts 214°
2026-05-05 16:01 29.71940 -15.08288 39059 ft 389 kts 214°
2026-05-05 16:02 29.67083 -15.11034 39059 ft 389 kts 214°
2026-05-05 16:02 29.62193 -15.13795 39057 ft 389 kts 214°
2026-05-05 16:03 29.57354 -15.16525 39057 ft 389 kts 214°
2026-05-05 16:03 29.52500 -15.19261 39056 ft 389 kts 214°
2026-05-05 16:04 29.47631 -15.22002 39051 ft 390 kts 214°
2026-05-05 16:04 29.42777 -15.24732 39054 ft 390 kts 214°
2026-05-05 16:05 29.37887 -15.27479 39051 ft 390 kts 214°
2026-05-05 16:05 29.33017 -15.30212 39051 ft 390 kts 214°
2026-05-05 16:06 29.28148 -15.32941 39048 ft 390 kts 214°
2026-05-05 16:06 29.23273 -15.35671 39045 ft 390 kts 214°
2026-05-05 16:07 29.18397 -15.38399 39048 ft 390 kts 214°
2026-05-05 16:07 29.13524 -15.41122 39045 ft 390 kts 214°
2026-05-05 16:08 29.08656 -15.43838 39047 ft 390 kts 214°
2026-05-05 16:08 29.03779 -15.46558 39045 ft 390 kts 214°
2026-05-05 16:09 28.98903 -15.49274 39046 ft 390 kts 214°
2026-05-05 16:09 28.94034 -15.51983 39042 ft 390 kts 214°
2026-05-05 16:10 28.89152 -15.54697 39035 ft 390 kts 214°
2026-05-05 16:10 28.84311 -15.57385 39042 ft 390 kts 214°
2026-05-05 16:11 28.79387 -15.60116 39044 ft 391 kts 214°
2026-05-05 16:12 28.69521 -15.65587 39039 ft 400 kts 214°
2026-05-05 16:13 28.56851 -15.72585 39035 ft 408 kts 214°
2026-05-05 16:13 28.51743 -15.75397 39035 ft 407 kts 214°
2026-05-05 16:14 28.41540 -15.81012 39033 ft 407 kts 214°
2026-05-05 16:15 28.31345 -15.86612 39033 ft 407 kts 214°
2026-05-05 16:16 28.21126 -15.92216 39032 ft 408 kts 214°
2026-05-05 16:17 28.13447 -15.96416 39022 ft 408 kts 214°
2026-05-05 16:18 28.05778 -16.00605 39025 ft 408 kts 214°
2026-05-05 16:19 27.98111 -16.04786 39014 ft 408 kts 214°
2026-05-05 16:19 27.90430 -16.08971 39011 ft 409 kts 214°
2026-05-05 16:20 27.80174 -16.14544 39011 ft 409 kts 214°
2026-05-05 16:22 27.67354 -16.21495 39008 ft 409 kts 214°
2026-05-05 16:23 27.57063 -16.27063 39012 ft 410 kts 214°
2026-05-05 16:23 27.49330 -16.31238 39012 ft 410 kts 214°
2026-05-05 16:24 27.44181 -16.34014 39009 ft 410 kts 214°
2026-05-05 16:25 27.36461 -16.38171 38997 ft 410 kts 213°
2026-05-05 16:25 27.28742 -16.42322 39005 ft 410 kts 213°
2026-05-05 16:26 27.18451 -16.47847 39008 ft 410 kts 213°
2026-05-05 16:27 27.13307 -16.50603 39006 ft 410 kts 213°
2026-05-05 16:27 27.08159 -16.53359 39008 ft 410 kts 213°
2026-05-05 16:28 27.03018 -16.56108 39006 ft 409 kts 213°
2026-05-05 16:28 26.97897 -16.58844 39008 ft 408 kts 213°
2026-05-05 16:29 26.92775 -16.61578 39007 ft 407 kts 213°
2026-05-05 16:29 26.87659 -16.64307 39007 ft 408 kts 213°
2026-05-05 16:30 26.82571 -16.67017 39007 ft 408 kts 213°
2026-05-05 16:30 26.77450 -16.69743 39007 ft 407 kts 213°
2026-05-05 16:31 26.72339 -16.72460 39004 ft 408 kts 213°
2026-05-05 16:31 26.67194 -16.75193 39004 ft 408 kts 213°
2026-05-05 16:32 26.62071 -16.77910 39005 ft 408 kts 213°
2026-05-05 16:32 26.56930 -16.80635 39004 ft 408 kts 213°
2026-05-05 16:33 26.51790 -16.83357 39004 ft 408 kts 213°
2026-05-05 16:33 26.46657 -16.86071 39004 ft 408 kts 213°
2026-05-05 16:34 26.41526 -16.88783 39005 ft 408 kts 213°
2026-05-05 16:34 26.36399 -16.91488 39006 ft 407 kts 213°
2026-05-05 16:35 26.31293 -16.94182 39000 ft 407 kts 213°
2026-05-05 16:35 26.26157 -16.96888 39001 ft 407 kts 213°
2026-05-05 16:36 26.21034 -16.99585 39006 ft 407 kts 213°
2026-05-05 16:36 26.15912 -17.02279 39006 ft 407 kts 213°
2026-05-05 16:37 26.10791 -17.04968 39011 ft 407 kts 213°
2026-05-05 16:37 26.05664 -17.07660 38994 ft 407 kts 213°
2026-05-05 16:38 26.00546 -17.10343 39000 ft 407 kts 213°
2026-05-05 16:38 25.95408 -17.13034 39000 ft 407 kts 213°
2026-05-05 16:39 25.90278 -17.15718 38999 ft 407 kts 213°
2026-05-05 16:39 25.85157 -17.18395 38997 ft 407 kts 213°
2026-05-05 16:40 25.80022 -17.21077 38991 ft 407 kts 213°
2026-05-05 16:40 25.75761 -17.23301 38999 ft 408 kts 213°
2026-05-05 16:41 25.70622 -17.25981 38997 ft 408 kts 213°
2026-05-05 16:41 25.65490 -17.28654 38994 ft 408 kts 213°
2026-05-05 16:42 25.60354 -17.31326 38992 ft 408 kts 213°
2026-05-05 16:42 25.55215 -17.33998 38989 ft 408 kts 213°
2026-05-05 16:43 25.50077 -17.36666 38969 ft 407 kts 213°
2026-05-05 16:43 25.44949 -17.39326 38995 ft 407 kts 213°
2026-05-05 16:44 25.39819 -17.41986 38995 ft 407 kts 213°
2026-05-05 16:44 25.34685 -17.44646 38979 ft 407 kts 213°
2026-05-05 16:45 25.29552 -17.47302 38996 ft 407 kts 213°
2026-05-05 16:45 25.24417 -17.49956 38989 ft 407 kts 213°
2026-05-05 16:46 25.19282 -17.52608 38946 ft 407 kts 213°
2026-05-05 16:46 25.14189 -17.55236 38986 ft 407 kts 213°
2026-05-05 16:47 25.09057 -17.57881 38985 ft 406 kts 213°
2026-05-05 16:47 25.03937 -17.60518 38980 ft 406 kts 213°
2026-05-05 16:48 24.98930 -17.63347 38986 ft 401 kts 217°
2026-05-05 16:48 24.94171 -17.66539 38984 ft 400 kts 218°
2026-05-05 16:49 24.89453 -17.69802 38980 ft 400 kts 219°
2026-05-05 16:49 24.84746 -17.73066 38976 ft 400 kts 219°
2026-05-05 16:50 24.80034 -17.76322 38980 ft 400 kts 219°
2026-05-05 16:50 24.75312 -17.79574 38980 ft 400 kts 219°
2026-05-05 16:51 24.70587 -17.82824 38980 ft 400 kts 219°
2026-05-05 16:51 24.65863 -17.86069 38977 ft 400 kts 219°
2026-05-05 16:52 24.61139 -17.89313 38980 ft 400 kts 219°
2026-05-05 16:52 24.56424 -17.92547 38887 ft 399 kts 219°
2026-05-05 16:53 24.54072 -17.94159 38735 ft 399 kts 219°
2026-05-05 16:53 24.51712 -17.95777 38611 ft 400 kts 219°
2026-05-05 16:53 24.49350 -17.97396 38489 ft 400 kts 219°
2026-05-05 16:53 24.46984 -17.99016 38325 ft 401 kts 219°
2026-05-05 16:54 24.44617 -18.00636 38209 ft 402 kts 218°
2026-05-05 16:54 24.42245 -18.02259 38087 ft 402 kts 218°
2026-05-05 16:54 24.39868 -18.03885 37983 ft 403 kts 218°
2026-05-05 16:54 24.37493 -18.05508 37976 ft 404 kts 218°
2026-05-05 16:55 24.32713 -18.08772 37975 ft 404 kts 218°
2026-05-05 16:55 24.27938 -18.12029 37974 ft 404 kts 218°
2026-05-05 16:56 24.23195 -18.15262 37977 ft 404 kts 218°
2026-05-05 16:56 24.18416 -18.18516 37978 ft 404 kts 218°
2026-05-05 16:57 24.13647 -18.21760 37974 ft 403 kts 218°
2026-05-05 16:57 24.08888 -18.24996 37973 ft 403 kts 218°
2026-05-05 16:58 24.04119 -18.28235 37974 ft 403 kts 218°
2026-05-05 16:58 23.99345 -18.31476 37974 ft 403 kts 218°
2026-05-05 16:59 23.94577 -18.34709 37978 ft 403 kts 218°
2026-05-05 16:59 23.89806 -18.37941 37974 ft 403 kts 218°
2026-05-05 17:00 23.85053 -18.41157 37971 ft 401 kts 218°
2026-05-05 17:00 23.80318 -18.44359 37983 ft 400 kts 218°
2026-05-05 17:01 23.75592 -18.47553 37971 ft 399 kts 218°
2026-05-05 17:01 23.70866 -18.50745 37971 ft 400 kts 218°
2026-05-05 17:02 23.66135 -18.53937 37971 ft 400 kts 218°
2026-05-05 17:02 23.61403 -18.57125 37971 ft 400 kts 218°
2026-05-05 17:03 23.56677 -18.60308 37968 ft 400 kts 218°
2026-05-05 17:03 23.51946 -18.63491 37968 ft 400 kts 218°
2026-05-05 17:04 23.47212 -18.66673 37968 ft 400 kts 218°
2026-05-05 17:04 23.42480 -18.69852 37968 ft 400 kts 218°
2026-05-05 17:05 23.37746 -18.73028 37971 ft 400 kts 218°
2026-05-05 17:05 23.33013 -18.76202 37968 ft 400 kts 218°
2026-05-05 17:06 23.28279 -18.79373 37968 ft 400 kts 218°
2026-05-05 17:06 23.23574 -18.82523 37968 ft 400 kts 218°
2026-05-05 17:07 23.18837 -18.85691 37968 ft 400 kts 218°
2026-05-05 17:07 23.14099 -18.88858 37969 ft 400 kts 218°
2026-05-05 17:08 23.09357 -18.92024 37968 ft 400 kts 218°
2026-05-05 17:08 23.04621 -18.95184 37966 ft 400 kts 218°
2026-05-05 17:09 22.99882 -18.98343 37971 ft 400 kts 218°
2026-05-05 17:09 22.95139 -19.01502 37972 ft 400 kts 218°
2026-05-05 17:10 22.90395 -19.04659 37969 ft 400 kts 218°
2026-05-05 17:10 22.85659 -19.07807 37971 ft 400 kts 218°
2026-05-05 17:11 22.80915 -19.10959 37965 ft 400 kts 218°
2026-05-05 17:11 22.76171 -19.14108 37965 ft 400 kts 218°
2026-05-05 17:12 22.71426 -19.17256 37968 ft 400 kts 218°
2026-05-05 17:12 22.66679 -19.20402 37962 ft 400 kts 218°
2026-05-05 17:13 22.61924 -19.23551 37961 ft 400 kts 218°
2026-05-05 17:13 22.57173 -19.26694 37984 ft 400 kts 218°
2026-05-05 17:14 22.52421 -19.29835 37957 ft 400 kts 218°
2026-05-05 17:14 22.47673 -19.32971 37966 ft 400 kts 218°
2026-05-05 17:15 22.42961 -19.36081 37965 ft 399 kts 218°
2026-05-05 17:15 22.38223 -19.39206 37961 ft 399 kts 218°
2026-05-05 17:16 22.33477 -19.42333 37965 ft 399 kts 218°
2026-05-05 17:16 22.28732 -19.45458 37966 ft 399 kts 218°
2026-05-05 17:17 22.23982 -19.48583 37967 ft 400 kts 218°
2026-05-05 17:17 22.19230 -19.51707 37957 ft 400 kts 218°
2026-05-05 17:18 22.14477 -19.54828 37966 ft 399 kts 218°
2026-05-05 17:18 22.09734 -19.57941 37966 ft 399 kts 218°
2026-05-05 17:19 22.04993 -19.61050 37963 ft 399 kts 218°
2026-05-05 17:19 22.00254 -19.64155 37963 ft 399 kts 218°
2026-05-05 17:20 21.95508 -19.67262 37963 ft 399 kts 218°
2026-05-05 17:20 21.90766 -19.70364 37963 ft 399 kts 218°
2026-05-05 17:21 21.86019 -19.73467 37965 ft 399 kts 218°
2026-05-05 17:22 21.78896 -19.78118 37969 ft 399 kts 218°
2026-05-05 17:22 21.74145 -19.81217 37965 ft 399 kts 218°
2026-05-05 17:23 21.69390 -19.84316 37962 ft 399 kts 218°
2026-05-05 17:23 21.64647 -19.87405 38082 ft 398 kts 218°
2026-05-05 17:23 21.62283 -19.88943 38224 ft 397 kts 219°
2026-05-05 17:24 21.59919 -19.90481 38385 ft 396 kts 219°
2026-05-05 17:24 21.57564 -19.92012 38552 ft 395 kts 219°
2026-05-05 17:24 21.55219 -19.93536 38684 ft 394 kts 219°
2026-05-05 17:25 21.50541 -19.96576 38877 ft 392 kts 218°
2026-05-05 17:25 21.45916 -19.99580 39104 ft 390 kts 218°
2026-05-05 17:25 21.43591 -20.01089 39220 ft 389 kts 218°
2026-05-05 17:26 21.41278 -20.02589 39336 ft 388 kts 218°
2026-05-05 17:26 21.38968 -20.04087 39452 ft 387 kts 218°
2026-05-05 17:26 21.36670 -20.05576 39575 ft 386 kts 218°
2026-05-05 17:26 21.34371 -20.07065 39688 ft 385 kts 219°
2026-05-05 17:27 21.32083 -20.08548 39815 ft 383 kts 219°
2026-05-05 17:27 21.29806 -20.10022 39930 ft 382 kts 219°
2026-05-05 17:27 21.27526 -20.11498 39966 ft 383 kts 219°
2026-05-05 17:28 21.22946 -20.14466 39967 ft 386 kts 219°
2026-05-05 17:28 21.18337 -20.17449 39974 ft 388 kts 218°
2026-05-05 17:29 21.13691 -20.20451 39970 ft 391 kts 218°
2026-05-05 17:29 21.09010 -20.23472 39974 ft 394 kts 218°
2026-05-05 17:30 21.04295 -20.26512 39976 ft 396 kts 218°
2026-05-05 17:30 21.00377 -20.29034 39974 ft 395 kts 218°
2026-05-05 17:31 20.95672 -20.32063 39974 ft 394 kts 218°
2026-05-05 17:31 20.90969 -20.35091 39974 ft 395 kts 218°
2026-05-05 17:32 20.86265 -20.38117 39948 ft 395 kts 218°
2026-05-05 17:32 20.81554 -20.41144 39972 ft 395 kts 218°
2026-05-05 17:33 20.76845 -20.44169 39975 ft 395 kts 218°
2026-05-05 17:33 20.72138 -20.47189 39976 ft 395 kts 218°
2026-05-05 17:34 20.67420 -20.50215 39978 ft 396 kts 218°
2026-05-05 17:34 20.62699 -20.53241 39978 ft 396 kts 218°
2026-05-05 17:35 20.57966 -20.56272 39975 ft 396 kts 218°
2026-05-05 17:35 20.53246 -20.59291 39976 ft 396 kts 218°
2026-05-05 17:36 20.48510 -20.62319 39982 ft 396 kts 218°
2026-05-05 17:36 20.43778 -20.65343 39969 ft 396 kts 218°
2026-05-05 17:37 20.39064 -20.68387 39972 ft 394 kts 221°
2026-05-05 17:37 20.34948 -20.72098 39988 ft 384 kts 232°
2026-05-05 17:38 20.31436 -20.76364 39984 ft 383 kts 234°
2026-05-05 17:38 20.28045 -20.80727 39969 ft 382 kts 234°
2026-05-05 17:39 20.24656 -20.85105 39984 ft 383 kts 234°
2026-05-05 17:39 20.21273 -20.89443 39988 ft 384 kts 234°
2026-05-05 17:40 20.17840 -20.93824 39987 ft 384 kts 234°
2026-05-05 17:40 20.14413 -20.98188 39970 ft 384 kts 234°
2026-05-05 17:41 20.10988 -21.02547 39989 ft 384 kts 234°
2026-05-05 17:41 20.07589 -21.06871 39988 ft 384 kts 234°
2026-05-05 17:42 20.04167 -21.11221 39993 ft 384 kts 234°
2026-05-05 17:42 20.00739 -21.15577 39978 ft 384 kts 233°
2026-05-05 17:43 19.97306 -21.19936 39992 ft 385 kts 233°
2026-05-05 17:43 19.93865 -21.24301 39995 ft 385 kts 233°
2026-05-05 17:44 19.90423 -21.28663 39975 ft 385 kts 233°
2026-05-05 17:44 19.86980 -21.33024 39993 ft 385 kts 233°
2026-05-05 17:45 19.83534 -21.37386 39992 ft 385 kts 233°
2026-05-05 17:45 19.80088 -21.41744 39992 ft 385 kts 233°
2026-05-05 17:46 19.76646 -21.46093 39985 ft 384 kts 234°
2026-05-05 17:46 19.73209 -21.50433 39991 ft 384 kts 234°
2026-05-05 17:47 19.69766 -21.54780 39992 ft 385 kts 234°
2026-05-05 17:47 19.66321 -21.59124 39993 ft 385 kts 234°
2026-05-05 17:48 19.62873 -21.63469 39993 ft 385 kts 234°
2026-05-05 17:48 19.59425 -21.67810 39993 ft 385 kts 234°
2026-05-05 17:49 19.55976 -21.72150 39990 ft 385 kts 234°
2026-05-05 17:49 19.52528 -21.76485 39990 ft 385 kts 233°
2026-05-05 17:50 19.49075 -21.80825 39996 ft 386 kts 233°
2026-05-05 17:50 19.45598 -21.85192 39991 ft 389 kts 233°
2026-05-05 17:51 19.42106 -21.89572 39968 ft 389 kts 233°
2026-05-05 17:51 19.38631 -21.93925 39994 ft 387 kts 234°
2026-05-05 17:52 19.35160 -21.98275 39994 ft 387 kts 234°
2026-05-05 17:52 19.31684 -22.02626 39994 ft 387 kts 234°
2026-05-05 17:53 19.28207 -22.06976 39992 ft 387 kts 234°
2026-05-05 17:53 19.24757 -22.11290 39994 ft 387 kts 234°
2026-05-05 17:54 19.21279 -22.15634 39989 ft 387 kts 234°
2026-05-05 17:54 19.17777 -22.20006 39994 ft 387 kts 233°
2026-05-05 17:55 19.14323 -22.24314 39997 ft 387 kts 233°
2026-05-05 17:55 19.10843 -22.28652 39995 ft 387 kts 233°
2026-05-05 17:56 19.07363 -22.32987 39997 ft 387 kts 233°
2026-05-05 17:56 19.03882 -22.37319 39967 ft 387 kts 234°
2026-05-05 17:57 19.00395 -22.41657 40006 ft 388 kts 234°
2026-05-05 17:57 18.96902 -22.45998 39987 ft 387 kts 233°
2026-05-05 17:58 18.93411 -22.50335 40006 ft 387 kts 233°
2026-05-05 17:58 18.89917 -22.54671 39987 ft 388 kts 233°
2026-05-05 17:59 18.86423 -22.59005 40008 ft 387 kts 233°
2026-05-05 17:59 18.82930 -22.63335 40007 ft 387 kts 233°
2026-05-05 18:00 18.79433 -22.67666 39993 ft 387 kts 233°
2026-05-05 18:00 18.75941 -22.71990 39994 ft 387 kts 233°
2026-05-05 18:01 18.72449 -22.76308 40007 ft 387 kts 233°
2026-05-05 18:01 18.68958 -22.80622 40013 ft 386 kts 233°
2026-05-05 18:02 18.65479 -22.84917 40001 ft 385 kts 233°
2026-05-05 18:02 18.62022 -22.89185 40004 ft 385 kts 233°
2026-05-05 18:03 18.58548 -22.93470 40004 ft 385 kts 233°
2026-05-05 18:03 18.55061 -22.97769 40004 ft 385 kts 233°
2026-05-05 18:04 18.51579 -23.02057 40005 ft 385 kts 233°
2026-05-05 18:04 18.48093 -23.06348 40004 ft 385 kts 233°
2026-05-05 18:05 18.44611 -23.10632 40006 ft 385 kts 233°
2026-05-05 18:05 18.41125 -23.14917 40004 ft 385 kts 233°
2026-05-05 18:06 18.37639 -23.19200 40005 ft 385 kts 233°
2026-05-05 18:06 18.34151 -23.23481 40004 ft 385 kts 233°
2026-05-05 18:07 18.30660 -23.27764 40007 ft 385 kts 233°
2026-05-05 18:07 18.27169 -23.32042 40009 ft 386 kts 233°
2026-05-05 18:08 18.23668 -23.36333 40006 ft 387 kts 233°
2026-05-05 18:08 18.20161 -23.40626 40008 ft 387 kts 233°
2026-05-05 18:09 18.16654 -23.44917 40005 ft 387 kts 233°
2026-05-05 18:09 18.13151 -23.49199 40010 ft 386 kts 233°
2026-05-05 18:10 18.09666 -23.53457 40005 ft 386 kts 233°
2026-05-05 18:10 18.06162 -23.57735 40005 ft 386 kts 233°
2026-05-05 18:11 18.02654 -23.62014 40005 ft 386 kts 233°
2026-05-05 18:11 17.99146 -23.66291 40008 ft 386 kts 233°
2026-05-05 18:12 17.95637 -23.70567 40009 ft 387 kts 233°
2026-05-05 18:12 17.92129 -23.74838 39975 ft 387 kts 233°
2026-05-05 18:13 17.88608 -23.79123 40007 ft 388 kts 233°
2026-05-05 18:13 17.85074 -23.83422 40007 ft 389 kts 233°
2026-05-05 18:14 17.81533 -23.87723 40007 ft 389 kts 233°
2026-05-05 18:14 17.77995 -23.92020 40010 ft 389 kts 233°
2026-05-05 18:15 17.74457 -23.96312 40008 ft 389 kts 233°
2026-05-05 18:15 17.70919 -24.00603 40010 ft 389 kts 233°
2026-05-05 18:16 17.67377 -24.04896 40010 ft 389 kts 233°
2026-05-05 18:16 17.63835 -24.09187 40010 ft 389 kts 233°
2026-05-05 18:17 17.60287 -24.13482 40012 ft 390 kts 233°
2026-05-05 18:17 17.56738 -24.17774 40012 ft 390 kts 233°
2026-05-05 18:18 17.53186 -24.22068 40007 ft 390 kts 233°
2026-05-05 18:18 17.50222 -24.25649 40011 ft 393 kts 233°
2026-05-05 18:19 17.46631 -24.29986 40016 ft 395 kts 233°
2026-05-05 18:19 17.43021 -24.34343 40006 ft 396 kts 233°
2026-05-05 18:20 17.39414 -24.38690 40005 ft 395 kts 233°
2026-05-05 18:20 17.35813 -24.43027 40014 ft 394 kts 233°
2026-05-05 18:21 17.32223 -24.47350 40017 ft 393 kts 233°
2026-05-05 18:21 17.28657 -24.51641 40010 ft 393 kts 233°
2026-05-05 18:22 17.25070 -24.55956 40021 ft 393 kts 233°
2026-05-05 18:22 17.21476 -24.60275 40008 ft 393 kts 233°
2026-05-05 18:23 17.17885 -24.64589 40020 ft 393 kts 233°
2026-05-05 18:23 17.14285 -24.68910 40016 ft 395 kts 233°
2026-05-05 18:24 17.10668 -24.73251 40019 ft 398 kts 233°
2026-05-05 18:24 17.07028 -24.77614 40009 ft 398 kts 233°
2026-05-05 18:25 17.03394 -24.81965 40009 ft 397 kts 233°
2026-05-05 18:25 16.99762 -24.86314 40010 ft 397 kts 233°
2026-05-05 18:26 16.96129 -24.90661 40015 ft 397 kts 233°
2026-05-05 18:26 16.92493 -24.95008 40002 ft 397 kts 233°
2026-05-05 18:27 16.88857 -24.99354 40009 ft 398 kts 233°
2026-05-05 18:27 16.85217 -25.03700 39987 ft 397 kts 233°
2026-05-05 18:28 16.80473 -25.10662 39992 ft 393 kts 240°
2026-05-05 18:28 16.77637 -25.15549 39982 ft 394 kts 242°
2026-05-05 18:29 16.74825 -25.20470 39988 ft 396 kts 242°
2026-05-05 18:29 16.71989 -25.25417 40003 ft 398 kts 241°
2026-05-05 18:30 16.69141 -25.30360 39992 ft 397 kts 241°
2026-05-05 18:30 16.66291 -25.35295 40006 ft 397 kts 241°
2026-05-05 18:31 16.63443 -25.40224 39999 ft 397 kts 241°
2026-05-05 18:31 16.60592 -25.45155 39998 ft 397 kts 241°
2026-05-05 18:32 16.57743 -25.50081 40014 ft 397 kts 241°
2026-05-05 18:32 16.54894 -25.55001 39996 ft 397 kts 241°
2026-05-05 18:33 16.52037 -25.59934 39999 ft 397 kts 241°
2026-05-05 18:33 16.49181 -25.64860 40017 ft 397 kts 241°
2026-05-05 18:34 16.46338 -25.69762 40014 ft 396 kts 241°
2026-05-05 18:34 16.43475 -25.74692 39998 ft 396 kts 241°
2026-05-05 18:35 16.40625 -25.79600 40021 ft 396 kts 241°
2026-05-05 18:35 16.37771 -25.84510 40003 ft 396 kts 241°
2026-05-05 18:36 16.34915 -25.89419 40004 ft 396 kts 241°
2026-05-05 18:36 16.32059 -25.94325 40022 ft 396 kts 241°
2026-05-05 18:37 16.29199 -25.99235 40014 ft 397 kts 241°
2026-05-05 18:37 16.26362 -26.04102 40021 ft 397 kts 241°
2026-05-05 18:38 16.23474 -26.09053 40016 ft 397 kts 241°
2026-05-05 18:38 16.20632 -26.13923 40005 ft 397 kts 241°
2026-05-05 18:39 16.17741 -26.18871 40004 ft 397 kts 241°
2026-05-05 18:39 16.14895 -26.23741 40016 ft 397 kts 241°
2026-05-05 18:40 16.12023 -26.28639 40019 ft 397 kts 240°
2026-05-05 18:40 16.09126 -26.33541 40016 ft 397 kts 240°
2026-05-05 18:41 16.06230 -26.38432 40008 ft 397 kts 240°
2026-05-05 18:41 16.03342 -26.43308 40026 ft 397 kts 240°
2026-05-05 18:42 16.00447 -26.48195 40024 ft 397 kts 240°
2026-05-05 18:42 15.97551 -26.53081 39981 ft 397 kts 241°
2026-05-05 18:43 15.94649 -26.57972 40022 ft 399 kts 241°
2026-05-05 18:43 15.91733 -26.62887 40019 ft 401 kts 241°
2026-05-05 18:44 15.88812 -26.67806 40019 ft 401 kts 240°
2026-05-05 18:44 15.85886 -26.72730 40015 ft 400 kts 240°
2026-05-05 18:45 15.82971 -26.77631 40015 ft 400 kts 240°
2026-05-05 18:45 15.80044 -26.82549 40018 ft 400 kts 240°
2026-05-05 18:46 15.77103 -26.87488 40011 ft 400 kts 240°
2026-05-05 18:46 15.74178 -26.92397 40018 ft 400 kts 240°
2026-05-05 18:47 15.71246 -26.97314 40020 ft 400 kts 240°
2026-05-05 18:47 15.68335 -27.02193 40017 ft 400 kts 240°
2026-05-05 18:48 15.65403 -27.07104 40014 ft 400 kts 240°
2026-05-05 18:48 15.62467 -27.12018 40019 ft 400 kts 240°
2026-05-05 18:49 15.59534 -27.16923 40015 ft 400 kts 240°
2026-05-05 18:49 15.56598 -27.21832 40002 ft 401 kts 240°
2026-05-05 18:50 15.53651 -27.26755 40018 ft 403 kts 240°
2026-05-05 18:50 15.50686 -27.31704 40018 ft 404 kts 240°
2026-05-05 18:51 15.47719 -27.36654 40018 ft 404 kts 240°
2026-05-05 18:51 15.44753 -27.41599 40018 ft 404 kts 240°
2026-05-05 18:52 15.41785 -27.46543 40015 ft 404 kts 240°
2026-05-05 18:52 15.38818 -27.51484 40018 ft 404 kts 240°
2026-05-05 18:53 15.35849 -27.56424 40018 ft 404 kts 240°
2026-05-05 18:53 15.32882 -27.61357 40018 ft 404 kts 240°
2026-05-05 18:54 15.29912 -27.66293 40017 ft 404 kts 240°
2026-05-05 18:54 15.26941 -27.71226 40018 ft 404 kts 240°
2026-05-05 18:55 15.23974 -27.76150 40017 ft 404 kts 240°
2026-05-05 18:55 15.21017 -27.81055 40017 ft 404 kts 240°
2026-05-05 18:56 15.18041 -27.85987 40018 ft 404 kts 240°
2026-05-05 18:56 15.15062 -27.90921 40011 ft 404 kts 240°
2026-05-05 18:57 15.12073 -27.95870 40017 ft 407 kts 240°
2026-05-05 18:57 15.09065 -28.00847 40022 ft 408 kts 240°
2026-05-05 18:58 15.06060 -28.05813 40019 ft 407 kts 240°
2026-05-05 18:58 15.03050 -28.10786 40017 ft 407 kts 240°
2026-05-05 18:59 15.00042 -28.15753 40019 ft 408 kts 240°
2026-05-05 18:59 14.97033 -28.20719 40016 ft 408 kts 240°
2026-05-05 19:00 14.94015 -28.25695 40023 ft 408 kts 240°
2026-05-05 19:00 14.91003 -28.30659 40024 ft 407 kts 240°
2026-05-05 19:01 14.87986 -28.35626 40025 ft 408 kts 240°
2026-05-05 19:01 14.84971 -28.40589 40027 ft 408 kts 240°
2026-05-05 19:02 14.81774 -28.45440 40018 ft 410 kts 233°
2026-05-05 19:02 14.77524 -28.49432 40021 ft 419 kts 219°
2026-05-05 19:03 14.72506 -28.52550 40022 ft 425 kts 216°
2026-05-05 19:03 14.67293 -28.55514 40023 ft 428 kts 215°
2026-05-05 19:04 14.62060 -28.58467 40020 ft 428 kts 215°
2026-05-05 19:04 14.56890 -28.61415 40022 ft 428 kts 216°
2026-05-05 19:05 14.51685 -28.64402 40021 ft 427 kts 216°
2026-05-05 19:05 14.46494 -28.67386 40020 ft 427 kts 216°
2026-05-05 19:06 14.41308 -28.70364 40012 ft 427 kts 215°
2026-05-05 19:06 14.36108 -28.73350 40020 ft 429 kts 215°
2026-05-05 19:07 14.31722 -28.75866 40020 ft 432 kts 215°
2026-05-05 19:07 14.25615 -28.79366 40020 ft 432 kts 215°
2026-05-05 19:08 14.20359 -28.82373 40021 ft 432 kts 215°
2026-05-05 19:08 14.15109 -28.85378 40018 ft 432 kts 215°
2026-05-05 19:09 14.09860 -28.88381 40017 ft 432 kts 215°
2026-05-05 19:09 14.05488 -28.90882 40015 ft 432 kts 215°
2026-05-05 19:10 14.01487 -28.93170 41434 ft 434 kts 215°
2026-05-05 19:10 13.97691 -28.95337 41187 ft 441 kts 209°
2026-05-05 19:11 13.94992 -28.96873 41039 ft 446 kts 209°
2026-05-05 19:11 13.92270 -28.98420 40895 ft 445 kts 209°
2026-05-05 19:11 13.89568 -28.99955 40703 ft 444 kts 209°
2026-05-05 19:11 13.86852 -29.01504 40200 ft 450 kts 209°
2026-05-05 19:12 13.84095 -29.03079 40016 ft 456 kts 209°
2026-05-05 19:12 13.81315 -29.04666 40000 ft 458 kts 209°
2026-05-05 19:12 13.75731 -29.07854 40022 ft 460 kts 209°
2026-05-05 19:13 13.70078 -29.11076 40001 ft 468 kts 209°
2026-05-05 19:13 13.64357 -29.14335 39999 ft 471 kts 209°
2026-05-05 19:14 13.58651 -29.17581 38852 ft 449 kts 213°
2026-05-05 19:14 13.56041 -29.19044 40349 ft 411 kts 215°
2026-05-05 19:14 13.53616 -29.20397 41414 ft 384 kts 216°
2026-05-05 19:15 13.51275 -29.21718 40824 ft 387 kts 216°
2026-05-05 19:15 13.48890 -29.23093 40260 ft 400 kts 216°
2026-05-05 19:15 13.46438 -29.24515 40036 ft 409 kts 216°
2026-05-05 19:15 13.43942 -29.25953 40011 ft 413 kts 215°
2026-05-05 19:16 13.38866 -29.28849 40011 ft 421 kts 215°
2026-05-05 19:16 13.33704 -29.31777 40011 ft 427 kts 215°
2026-05-05 19:17 13.28455 -29.34753 40011 ft 434 kts 215°
2026-05-05 19:17 13.23159 -29.37754 40014 ft 435 kts 215°
2026-05-05 19:18 13.17867 -29.40749 40012 ft 434 kts 215°
2026-05-05 19:18 13.12626 -29.43719 40013 ft 434 kts 215°
2026-05-05 19:19 13.07299 -29.46737 40012 ft 434 kts 215°
2026-05-05 19:19 13.02010 -29.49732 40011 ft 434 kts 214°
2026-05-05 19:20 12.96732 -29.52719 40015 ft 433 kts 214°
2026-05-05 19:20 12.91453 -29.55705 40015 ft 433 kts 214°
2026-05-05 19:21 12.86214 -29.58667 40015 ft 433 kts 214°
2026-05-05 19:21 12.80892 -29.61674 40015 ft 433 kts 214°
2026-05-05 19:22 12.75645 -29.64638 40015 ft 433 kts 214°
2026-05-05 19:22 12.70365 -29.67619 40016 ft 433 kts 214°
2026-05-05 19:23 12.65082 -29.70600 40009 ft 433 kts 214°
2026-05-05 19:23 12.59803 -29.73578 40012 ft 433 kts 214°
2026-05-05 19:24 12.54517 -29.76557 40012 ft 433 kts 214°
2026-05-05 19:24 12.49237 -29.79533 40010 ft 433 kts 214°
2026-05-05 19:25 12.43955 -29.82508 40012 ft 433 kts 214°
2026-05-05 19:25 12.38671 -29.85482 39997 ft 433 kts 214°
2026-05-05 19:26 12.33380 -29.88460 40010 ft 434 kts 214°
2026-05-05 19:26 12.28084 -29.91439 40010 ft 435 kts 214°
2026-05-05 19:27 12.22779 -29.94420 40006 ft 435 kts 214°
2026-05-05 19:27 12.17482 -29.97397 40009 ft 435 kts 214°
2026-05-05 19:28 12.12178 -30.00376 40010 ft 435 kts 214°
2026-05-05 19:28 12.06874 -30.03354 40010 ft 435 kts 214°
2026-05-05 19:29 12.01568 -30.06332 40010 ft 436 kts 213°
2026-05-05 19:29 11.96237 -30.09322 40009 ft 438 kts 213°
2026-05-05 19:30 11.90891 -30.12319 40009 ft 438 kts 213°
2026-05-05 19:30 11.85542 -30.15316 40009 ft 439 kts 213°
2026-05-05 19:31 11.80188 -30.18314 40010 ft 439 kts 213°
2026-05-05 19:31 11.74831 -30.21314 40009 ft 439 kts 213°
2026-05-05 19:32 11.69507 -30.24293 40005 ft 440 kts 212°
2026-05-05 19:32 11.64094 -30.27322 40007 ft 442 kts 212°
2026-05-05 19:33 11.58714 -30.30330 40009 ft 442 kts 212°
2026-05-05 19:33 11.53299 -30.33355 40004 ft 442 kts 212°
2026-05-05 19:34 11.47939 -30.36350 40007 ft 442 kts 212°
2026-05-05 19:35 11.39846 -30.40868 40003 ft 443 kts 212°
2026-05-05 19:35 11.34435 -30.43888 40004 ft 445 kts 212°
2026-05-05 19:36 11.28996 -30.46923 40001 ft 446 kts 212°
2026-05-05 19:36 11.23551 -30.49958 40001 ft 446 kts 212°
2026-05-05 19:37 11.18106 -30.52992 40004 ft 446 kts 212°
2026-05-05 19:37 11.12660 -30.56025 40004 ft 446 kts 212°
2026-05-05 19:38 11.07213 -30.59059 40004 ft 446 kts 212°
2026-05-05 19:38 11.01761 -30.62093 40003 ft 447 kts 212°
2026-05-05 19:39 10.96312 -30.65125 40005 ft 448 kts 212°
2026-05-05 19:39 10.90878 -30.68146 40004 ft 448 kts 212°
2026-05-05 19:40 10.85361 -30.71213 40004 ft 448 kts 212°
2026-05-05 19:40 10.79923 -30.74235 40004 ft 448 kts 212°
2026-05-05 19:41 10.74418 -30.77303 40004 ft 448 kts 213°
2026-05-05 19:41 10.68992 -30.80345 40001 ft 448 kts 213°
2026-05-05 19:42 10.63529 -30.83410 40004 ft 449 kts 213°
2026-05-05 19:42 10.58054 -30.86476 40008 ft 449 kts 213°
2026-05-05 19:43 10.52561 -30.89516 40005 ft 449 kts 212°
2026-05-05 19:43 10.47078 -30.92533 40008 ft 449 kts 212°
2026-05-05 19:44 10.41573 -30.95563 40008 ft 449 kts 212°
2026-05-05 19:44 10.36069 -30.98594 39993 ft 450 kts 212°
2026-05-05 19:45 10.30564 -31.01626 40000 ft 451 kts 212°
2026-05-05 19:45 10.25071 -31.04650 40007 ft 452 kts 212°
2026-05-05 19:46 10.19517 -31.07705 40017 ft 452 kts 212°
2026-05-05 19:46 10.13990 -31.10744 40001 ft 452 kts 212°
2026-05-05 19:47 10.08467 -31.13781 40001 ft 452 kts 212°
2026-05-05 19:47 10.02943 -31.16816 40001 ft 452 kts 212°
2026-05-05 19:48 9.97416 -31.19853 40005 ft 452 kts 212°
2026-05-05 19:48 9.91877 -31.22895 40005 ft 453 kts 212°
2026-05-05 19:49 9.86343 -31.25932 40002 ft 453 kts 212°
2026-05-05 19:49 9.80795 -31.28976 39997 ft 453 kts 212°
2026-05-05 19:50 9.75253 -31.32016 40003 ft 453 kts 212°
2026-05-05 19:50 9.69713 -31.35054 40004 ft 453 kts 212°
2026-05-05 19:51 9.64177 -31.38089 40002 ft 454 kts 212°
2026-05-05 19:51 9.58609 -31.41139 40004 ft 454 kts 212°
2026-05-05 19:52 9.53045 -31.44186 39999 ft 454 kts 212°
2026-05-05 19:52 9.47488 -31.47228 39997 ft 454 kts 212°
2026-05-05 19:53 9.41930 -31.50270 40002 ft 454 kts 212°
2026-05-05 19:53 9.36365 -31.53314 40000 ft 454 kts 212°
2026-05-05 19:54 9.30798 -31.56359 40001 ft 454 kts 212°
2026-05-05 19:54 9.25235 -31.59400 40001 ft 454 kts 212°
2026-05-05 19:55 9.19670 -31.62441 40007 ft 454 kts 212°
2026-05-05 19:55 9.14109 -31.65479 39996 ft 454 kts 212°
2026-05-05 19:56 9.08547 -31.68517 40004 ft 454 kts 212°
2026-05-05 19:56 9.03922 -31.71042 40000 ft 454 kts 212°
2026-05-05 19:57 8.97449 -31.74574 40000 ft 456 kts 212°
2026-05-05 19:57 8.91866 -31.77621 40000 ft 456 kts 212°
2026-05-05 19:58 8.87215 -31.80156 40001 ft 457 kts 212°
2026-05-05 19:58 8.81627 -31.83202 40001 ft 456 kts 212°
2026-05-05 19:59 8.76038 -31.86248 40005 ft 456 kts 212°
2026-05-05 19:59 8.70450 -31.89293 40004 ft 456 kts 212°
2026-05-05 20:00 8.64856 -31.92339 40002 ft 457 kts 212°
2026-05-05 20:00 8.59258 -31.95387 39997 ft 457 kts 212°
2026-05-05 20:01 8.53657 -31.98435 39999 ft 457 kts 212°
2026-05-05 20:01 8.48063 -32.01479 40002 ft 457 kts 212°
2026-05-05 20:02 8.42453 -32.04529 39999 ft 457 kts 212°
2026-05-05 20:02 8.36853 -32.07574 39997 ft 457 kts 212°
2026-05-05 20:03 8.31258 -32.10615 39996 ft 457 kts 212°
2026-05-05 20:03 8.25647 -32.13663 39995 ft 457 kts 212°
2026-05-05 20:04 8.20045 -32.16706 39994 ft 457 kts 212°
2026-05-05 20:04 8.14440 -32.19749 39999 ft 457 kts 212°
2026-05-05 20:05 8.08840 -32.22789 39992 ft 457 kts 212°
2026-05-05 20:05 8.03241 -32.25828 39991 ft 457 kts 212°
2026-05-05 20:06 7.97636 -32.28868 39992 ft 458 kts 212°
2026-05-05 20:06 7.92028 -32.31909 39993 ft 458 kts 212°
2026-05-05 20:07 7.86416 -32.34952 39999 ft 458 kts 212°
2026-05-05 20:07 7.80828 -32.37980 39991 ft 457 kts 212°
2026-05-05 20:08 7.75203 -32.41027 39995 ft 457 kts 212°
2026-05-05 20:08 7.69601 -32.44061 39998 ft 457 kts 212°
2026-05-05 20:09 7.63998 -32.47095 39994 ft 457 kts 212°
2026-05-05 20:09 7.58397 -32.50128 39996 ft 458 kts 212°
2026-05-05 20:10 7.52782 -32.53166 39991 ft 458 kts 212°
2026-05-05 20:10 7.47217 -32.56176 39994 ft 457 kts 212°
2026-05-05 20:11 7.41598 -32.59215 39994 ft 457 kts 212°
2026-05-05 20:11 7.35990 -32.62247 39994 ft 458 kts 212°
2026-05-05 20:12 7.30383 -32.65278 39990 ft 457 kts 212°
2026-05-05 20:12 7.24779 -32.68306 39994 ft 457 kts 212°
2026-05-05 20:13 7.19172 -32.71335 39992 ft 457 kts 212°
2026-05-05 20:13 7.13571 -32.74360 39993 ft 457 kts 212°
2026-05-05 20:14 7.07967 -32.77385 39993 ft 457 kts 212°
2026-05-05 20:14 7.02357 -32.80414 39989 ft 457 kts 212°
2026-05-05 20:15 6.96747 -32.83441 39991 ft 458 kts 212°
2026-05-05 20:15 6.91130 -32.86471 39990 ft 458 kts 212°
2026-05-05 20:16 6.85508 -32.89502 39991 ft 458 kts 212°
2026-05-05 20:16 6.79891 -32.92530 39991 ft 458 kts 212°
2026-05-05 20:17 6.74274 -32.95558 39993 ft 458 kts 212°
2026-05-05 20:17 6.68663 -32.98582 39992 ft 458 kts 211°
2026-05-05 20:18 6.63043 -33.01610 39991 ft 459 kts 211°
2026-05-05 20:18 6.57414 -33.04642 39991 ft 459 kts 211°
2026-05-05 20:19 6.51784 -33.07673 39994 ft 459 kts 211°
2026-05-05 20:19 6.46148 -33.10707 39987 ft 459 kts 211°
2026-05-05 20:20 6.40521 -33.13735 39987 ft 459 kts 211°
2026-05-05 20:20 6.34886 -33.16767 39986 ft 459 kts 211°
2026-05-05 20:21 6.29261 -33.19783 39988 ft 459 kts 211°
2026-05-05 20:21 6.23605 -33.22807 39987 ft 459 kts 211°
2026-05-05 20:22 6.17968 -33.25820 39989 ft 459 kts 211°
2026-05-05 20:22 6.12316 -33.28842 39989 ft 460 kts 211°
2026-05-05 20:23 6.06710 -33.31839 39985 ft 460 kts 211°
2026-05-05 20:23 6.01070 -33.34854 39985 ft 459 kts 211°
2026-05-05 20:24 5.95386 -33.37891 39985 ft 459 kts 211°
2026-05-05 20:24 5.89743 -33.40906 39985 ft 459 kts 211°
2026-05-05 20:25 5.84103 -33.43918 39981 ft 459 kts 211°
2026-05-05 20:25 5.78478 -33.46922 39981 ft 459 kts 211°
2026-05-05 20:26 5.72862 -33.49920 39987 ft 459 kts 211°
2026-05-05 20:26 5.67225 -33.52929 39989 ft 459 kts 211°
2026-05-05 20:27 5.61575 -33.55944 39986 ft 460 kts 211°
2026-05-05 20:27 5.55924 -33.58959 39984 ft 460 kts 211°
2026-05-05 20:28 5.50274 -33.61973 39985 ft 460 kts 211°
2026-05-05 20:28 5.44627 -33.64984 39980 ft 460 kts 211°
2026-05-05 20:29 5.38973 -33.67998 39986 ft 460 kts 211°
2026-05-05 20:29 5.33318 -33.71013 39983 ft 460 kts 211°
2026-05-05 20:30 5.27671 -33.74022 39985 ft 460 kts 211°
2026-05-05 20:30 5.22008 -33.77039 39986 ft 460 kts 211°
2026-05-05 20:31 5.16356 -33.80050 39983 ft 460 kts 211°
2026-05-05 20:31 5.10698 -33.83064 39982 ft 460 kts 211°
2026-05-05 20:32 5.05046 -33.86074 39984 ft 460 kts 211°
2026-05-05 20:32 4.99380 -33.89091 39981 ft 462 kts 211°
2026-05-05 20:33 4.93699 -33.92115 39980 ft 462 kts 211°
2026-05-05 20:33 4.88021 -33.95136 39980 ft 462 kts 211°
2026-05-05 20:34 4.82341 -33.98158 39983 ft 462 kts 211°
2026-05-05 20:34 4.76661 -34.01180 39983 ft 462 kts 211°
2026-05-05 20:35 4.70981 -34.04202 39984 ft 463 kts 210°
2026-05-05 20:35 4.65289 -34.07229 39983 ft 464 kts 210°
2026-05-05 20:36 4.59581 -34.10263 39980 ft 464 kts 210°
2026-05-05 20:36 4.53877 -34.13295 39979 ft 464 kts 210°
2026-05-05 20:37 4.48180 -34.16327 39980 ft 464 kts 210°
2026-05-05 20:37 4.42517 -34.19358 39980 ft 464 kts 211°
2026-05-05 20:38 4.36826 -34.22409 39984 ft 464 kts 209°
2026-05-05 20:38 4.31122 -34.25466 39982 ft 465 kts 209°
2026-05-05 20:39 4.25414 -34.28522 39983 ft 465 kts 209°
2026-05-05 20:39 4.19704 -34.31579 39980 ft 465 kts 209°
2026-05-05 20:40 4.13994 -34.34634 39979 ft 465 kts 209°
2026-05-05 20:40 4.08284 -34.37690 39981 ft 465 kts 208°
2026-05-05 20:41 4.02564 -34.40750 39980 ft 467 kts 208°
2026-05-05 20:41 3.96822 -34.43822 39979 ft 468 kts 208°
2026-05-05 20:42 3.91085 -34.46890 39983 ft 468 kts 208°
2026-05-05 20:42 3.85343 -34.49961 39983 ft 468 kts 208°
2026-05-05 20:43 3.79600 -34.53032 39985 ft 468 kts 208°
2026-05-05 20:43 3.73856 -34.56103 39980 ft 468 kts 208°
2026-05-05 20:44 3.68154 -34.59151 39984 ft 468 kts 208°
2026-05-05 20:44 3.62407 -34.62222 39981 ft 468 kts 208°
2026-05-05 20:45 3.53794 -34.66824 39981 ft 468 kts 208°
2026-05-05 20:45 3.48049 -34.69894 39981 ft 468 kts 208°
2026-05-05 20:46 3.43236 -34.72465 39983 ft 468 kts 208°
2026-05-05 20:46 3.37503 -34.75527 39982 ft 466 kts 208°
2026-05-05 20:47 3.31788 -34.78579 39982 ft 465 kts 208°
2026-05-05 20:47 3.26072 -34.81631 39982 ft 465 kts 208°
2026-05-05 20:48 3.20360 -34.84681 39982 ft 465 kts 208°
2026-05-05 20:48 3.14647 -34.87730 39982 ft 466 kts 208°
2026-05-05 20:49 3.08930 -34.90783 39987 ft 466 kts 208°
2026-05-05 20:49 3.03211 -34.93834 39989 ft 466 kts 208°
2026-05-05 20:50 2.97497 -34.96884 39983 ft 466 kts 208°
2026-05-05 20:50 2.91814 -34.99916 39988 ft 466 kts 208°
2026-05-05 20:51 2.86094 -35.02967 39981 ft 466 kts 208°
2026-05-05 20:51 2.80365 -35.06024 39985 ft 467 kts 208°
2026-05-05 20:52 2.74648 -35.09073 39980 ft 467 kts 208°
2026-05-05 20:52 2.68910 -35.12132 39981 ft 467 kts 208°
2026-05-05 20:53 2.63176 -35.15179 39983 ft 467 kts 208°
2026-05-05 20:53 2.57441 -35.18221 39982 ft 467 kts 208°
2026-05-05 20:54 2.51706 -35.21264 39986 ft 467 kts 208°
2026-05-05 20:54 2.45965 -35.24311 39980 ft 467 kts 207°
2026-05-05 20:55 2.40233 -35.27353 39977 ft 467 kts 207°
2026-05-05 20:55 2.34491 -35.30400 39982 ft 467 kts 207°
2026-05-05 20:56 2.28749 -35.33446 39977 ft 467 kts 207°
2026-05-05 20:56 2.23005 -35.36493 39981 ft 467 kts 207°
2026-05-05 20:57 2.17264 -35.39539 39971 ft 467 kts 207°
2026-05-05 20:57 2.11508 -35.42592 39980 ft 470 kts 207°
2026-05-05 20:58 2.05724 -35.45660 39976 ft 470 kts 207°
2026-05-05 20:58 1.99981 -35.48706 39975 ft 470 kts 207°
2026-05-05 20:59 1.94200 -35.51772 39981 ft 471 kts 207°
2026-05-05 20:59 1.88413 -35.54840 39978 ft 471 kts 207°
2026-05-05 21:00 1.82622 -35.57911 39981 ft 472 kts 207°
2026-05-05 21:00 1.76816 -35.60989 39985 ft 473 kts 207°
2026-05-05 21:01 1.71006 -35.64069 39977 ft 473 kts 207°
2026-05-05 21:01 1.65196 -35.67149 39977 ft 473 kts 207°
2026-05-05 21:02 1.59388 -35.70228 39982 ft 473 kts 207°
2026-05-05 21:02 1.53582 -35.73305 39978 ft 473 kts 207°
2026-05-05 21:03 1.47763 -35.76389 39981 ft 474 kts 207°
2026-05-05 21:03 1.41932 -35.79480 39979 ft 475 kts 207°
2026-05-05 21:04 1.36093 -35.82574 39977 ft 475 kts 207°
2026-05-05 21:04 1.30261 -35.85665 39976 ft 475 kts 207°
2026-05-05 21:05 1.24425 -35.88757 39983 ft 475 kts 207°
2026-05-05 21:05 1.18581 -35.91853 39984 ft 476 kts 207°
2026-05-05 21:06 1.12716 -35.94961 39981 ft 477 kts 207°
2026-05-05 21:06 1.06853 -35.98067 39982 ft 477 kts 207°
2026-05-05 21:07 1.01023 -36.01156 39980 ft 477 kts 208°
2026-05-05 21:07 0.95156 -36.04264 39980 ft 477 kts 208°
2026-05-05 21:08 0.89254 -36.07391 39980 ft 477 kts 208°
2026-05-05 21:08 0.83384 -36.10500 39980 ft 478 kts 208°
2026-05-05 21:09 0.77549 -36.13591 39983 ft 478 kts 208°
2026-05-05 21:09 0.71677 -36.16702 39983 ft 478 kts 208°
2026-05-05 21:10 0.65806 -36.19812 39982 ft 478 kts 208°
2026-05-05 21:10 0.59935 -36.22921 39977 ft 477 kts 208°
2026-05-05 21:11 0.54064 -36.26031 39980 ft 477 kts 208°
2026-05-05 21:11 0.48201 -36.29136 39975 ft 477 kts 208°
2026-05-05 21:12 0.42337 -36.32242 39975 ft 477 kts 208°
2026-05-05 21:12 0.36474 -36.35347 39978 ft 477 kts 208°
2026-05-05 21:13 0.30611 -36.38452 39976 ft 477 kts 208°
2026-05-05 21:13 0.24742 -36.41560 39980 ft 478 kts 208°
2026-05-05 21:14 0.18873 -36.44669 39980 ft 478 kts 208°
2026-05-05 21:14 0.13001 -36.47779 39980 ft 478 kts 208°
2026-05-05 21:15 0.07126 -36.50890 39979 ft 478 kts 208°
2026-05-05 21:15 0.01255 -36.54000 39981 ft 478 kts 208°
2026-05-05 21:16 -0.04619 -36.57110 39978 ft 478 kts 209°
2026-05-05 21:16 -0.10495 -36.60222 39977 ft 478 kts 209°
2026-05-05 21:17 -0.16371 -36.63334 39977 ft 478 kts 209°
2026-05-05 21:17 -0.22248 -36.66447 39976 ft 478 kts 209°
2026-05-05 21:18 -0.28131 -36.69562 39977 ft 478 kts 209°
2026-05-05 21:18 -0.34006 -36.72674 39976 ft 478 kts 209°
2026-05-05 21:19 -0.39844 -36.75766 39980 ft 478 kts 208°
2026-05-05 21:19 -0.45722 -36.78879 39979 ft 478 kts 208°
2026-05-05 21:20 -0.51595 -36.81990 39980 ft 478 kts 208°
2026-05-05 21:20 -0.57478 -36.85105 39980 ft 478 kts 208°
2026-05-05 21:21 -0.63341 -36.88211 39978 ft 478 kts 208°
2026-05-05 21:21 -0.69234 -36.91332 39977 ft 477 kts 208°
2026-05-05 21:22 -0.75102 -36.94440 39977 ft 477 kts 208°
2026-05-05 21:22 -0.80976 -36.97552 39978 ft 477 kts 208°
2026-05-05 21:23 -0.86846 -37.00662 39978 ft 477 kts 209°
2026-05-05 21:23 -0.92706 -37.03766 39980 ft 477 kts 209°
2026-05-05 21:24 -0.98421 -37.07051 39979 ft 475 kts 212°
2026-05-05 21:24 -1.04084 -37.10496 39981 ft 475 kts 212°
2026-05-05 21:25 -1.09733 -37.13924 39978 ft 475 kts 212°
2026-05-05 21:25 -1.15383 -37.17347 39980 ft 475 kts 212°
2026-05-05 21:26 -1.21030 -37.20767 39978 ft 475 kts 212°
2026-05-05 21:26 -1.26687 -37.24192 39977 ft 475 kts 212°
2026-05-05 21:27 -1.32310 -37.27596 39976 ft 475 kts 212°
2026-05-05 21:27 -1.37967 -37.31021 39977 ft 475 kts 212°
2026-05-05 21:28 -1.43618 -37.34443 39977 ft 475 kts 212°
2026-05-05 21:28 -1.49276 -37.37869 39976 ft 475 kts 212°
2026-05-05 21:29 -1.54925 -37.41290 39980 ft 475 kts 212°
2026-05-05 21:29 -1.60579 -37.44714 39979 ft 475 kts 212°
2026-05-05 21:30 -1.66222 -37.48132 39978 ft 475 kts 213°
2026-05-05 21:30 -1.71873 -37.51554 39976 ft 475 kts 212°
2026-05-05 21:31 -1.77529 -37.54980 39976 ft 476 kts 212°
2026-05-05 21:31 -1.83190 -37.58409 39974 ft 476 kts 213°
2026-05-05 21:32 -1.88859 -37.61844 39977 ft 476 kts 213°
2026-05-05 21:32 -1.94527 -37.65278 39976 ft 476 kts 213°
2026-05-05 21:33 -1.99213 -37.68116 39644 ft 471 kts 213°
2026-05-05 21:33 -2.02004 -37.69808 39201 ft 468 kts 212°
2026-05-05 21:33 -2.04779 -37.71489 38725 ft 466 kts 213°
2026-05-05 21:34 -2.07556 -37.73172 38151 ft 467 kts 212°
2026-05-05 21:34 -2.10332 -37.74855 37633 ft 465 kts 212°
2026-05-05 21:34 -2.13094 -37.76528 37129 ft 463 kts 213°
2026-05-05 21:34 -2.15840 -37.78193 36611 ft 462 kts 213°
2026-05-05 21:35 -2.18585 -37.79856 36105 ft 460 kts 213°
2026-05-05 21:35 -2.21311 -37.81509 35558 ft 459 kts 213°
2026-05-05 21:35 -2.24045 -37.83167 34997 ft 459 kts 212°
2026-05-05 21:35 -2.26781 -37.84825 34377 ft 460 kts 212°
2026-05-05 21:36 -2.29516 -37.86483 33668 ft 462 kts 212°
2026-05-05 21:36 -2.32274 -37.88155 32803 ft 466 kts 212°
2026-05-05 21:36 -2.35056 -37.89842 31952 ft 468 kts 212°
2026-05-05 21:36 -2.37849 -37.91535 31087 ft 471 kts 212°
2026-05-05 21:37 -2.40661 -37.93240 30193 ft 474 kts 212°
2026-05-05 21:37 -2.43484 -37.94951 29459 ft 472 kts 212°
2026-05-05 21:37 -2.46271 -37.96641 28894 ft 465 kts 212°
2026-05-05 21:37 -2.49021 -37.98309 28311 ft 459 kts 212°
2026-05-05 21:38 -2.51737 -37.99956 27735 ft 454 kts 211°
2026-05-05 21:38 -2.54425 -38.01586 27143 ft 449 kts 211°
2026-05-05 21:38 -2.57083 -38.03198 26568 ft 445 kts 211°
2026-05-05 21:38 -2.59720 -38.04798 25996 ft 441 kts 211°
2026-05-05 21:39 -2.62337 -38.06386 25418 ft 439 kts 210°
2026-05-05 21:39 -2.64938 -38.07964 24843 ft 437 kts 210°
2026-05-05 21:39 -2.67535 -38.09539 24256 ft 436 kts 210°
2026-05-05 21:39 -2.70117 -38.11106 23677 ft 435 kts 210°
2026-05-05 21:40 -2.72708 -38.12677 23010 ft 434 kts 209°
2026-05-05 21:40 -2.75280 -38.14238 22413 ft 431 kts 210°
2026-05-05 21:40 -2.77800 -38.15767 21837 ft 427 kts 210°
2026-05-05 21:40 -2.80325 -38.17300 21248 ft 424 kts 209°
2026-05-05 21:41 -2.82844 -38.18829 20692 ft 421 kts 209°
2026-05-05 21:41 -2.85339 -38.20343 20121 ft 418 kts 209°
2026-05-05 21:41 -2.87821 -38.21849 19556 ft 416 kts 209°
2026-05-05 21:41 -2.90285 -38.23344 18996 ft 413 kts 209°
2026-05-05 21:42 -2.92737 -38.24832 18431 ft 411 kts 209°
2026-05-05 21:42 -2.95173 -38.26311 17818 ft 408 kts 209°
2026-05-05 21:42 -2.97590 -38.27778 17247 ft 404 kts 209°
2026-05-05 21:42 -2.99977 -38.29227 16717 ft 399 kts 209°
2026-05-05 21:43 -3.02340 -38.30662 16155 ft 396 kts 209°
2026-05-05 21:43 -3.04684 -38.32085 15612 ft 392 kts 209°
2026-05-05 21:43 -3.07003 -38.33493 15078 ft 389 kts 209°
2026-05-05 21:43 -3.09308 -38.34892 14527 ft 386 kts 209°
2026-05-05 21:44 -3.11594 -38.36280 13980 ft 383 kts 209°
2026-05-05 21:44 -3.13871 -38.37662 13408 ft 381 kts 209°
2026-05-05 21:44 -3.16118 -38.39028 12854 ft 377 kts 208°
2026-05-05 21:44 -3.18348 -38.40382 12326 ft 372 kts 208°
2026-05-05 21:45 -3.20554 -38.41722 11799 ft 368 kts 208°
2026-05-05 21:45 -3.22731 -38.43044 11273 ft 365 kts 208°
2026-05-05 21:45 -3.24880 -38.44350 10964 ft 354 kts 208°
2026-05-05 21:45 -3.26928 -38.45597 10889 ft 336 kts 208°
2026-05-05 21:46 -3.28882 -38.46787 10763 ft 322 kts 208°
2026-05-05 21:46 -3.30762 -38.47929 10618 ft 310 kts 208°
2026-05-05 21:46 -3.32570 -38.49028 10480 ft 299 kts 208°
2026-05-05 21:46 -3.34324 -38.50093 10341 ft 291 kts 207°
2026-05-05 21:47 -3.36052 -38.51141 9996 ft 291 kts 207°
2026-05-05 21:47 -3.37792 -38.52196 9618 ft 292 kts 207°
2026-05-05 21:47 -3.39523 -38.53246 9277 ft 291 kts 207°
2026-05-05 21:47 -3.41243 -38.54291 8951 ft 289 kts 207°
2026-05-05 21:48 -3.42953 -38.55330 8628 ft 287 kts 207°
2026-05-05 21:48 -3.44664 -38.56370 8292 ft 285 kts 207°
2026-05-05 21:48 -3.46351 -38.57395 7965 ft 284 kts 207°
2026-05-05 21:48 -3.48040 -38.58422 7631 ft 283 kts 207°
2026-05-05 21:49 -3.49719 -38.59442 7305 ft 281 kts 207°
2026-05-05 21:49 -3.51385 -38.60454 7013 ft 278 kts 207°
2026-05-05 21:49 -3.53005 -38.61442 6826 ft 269 kts 207°
2026-05-05 21:49 -3.54574 -38.62396 6564 ft 265 kts 207°
2026-05-05 21:50 -3.56128 -38.63342 6203 ft 258 kts 206°
2026-05-05 21:50 -3.57649 -38.64266 5814 ft 254 kts 206°
2026-05-05 21:50 -3.59144 -38.65174 5442 ft 248 kts 207°
2026-05-05 21:50 -3.60604 -38.66061 5100 ft 243 kts 207°
2026-05-05 21:51 -3.62016 -38.66921 4941 ft 231 kts 208°
2026-05-05 21:51 -3.63361 -38.67701 4798 ft 214 kts 202°
2026-05-05 21:51 -3.64686 -38.68201 4658 ft 196 kts 193°
2026-05-05 21:51 -3.65969 -38.68571 4374 ft 189 kts 192°
2026-05-05 21:52 -3.68496 -38.69201 3672 ft 185 kts 186°
2026-05-05 21:52 -3.69770 -38.69255 3333 ft 183 kts 174°
2026-05-05 21:52 -3.71010 -38.69004 3047 ft 181 kts 160°
2026-05-05 21:53 -3.72138 -38.68460 2798 ft 180 kts 147°
2026-05-05 21:53 -3.73090 -38.67661 2636 ft 179 kts 134°
2026-05-05 21:53 -3.73836 -38.66662 2452 ft 179 kts 123°
2026-05-05 21:53 -3.74347 -38.65521 2222 ft 181 kts 109°
2026-05-05 21:54 -3.74679 -38.64322 1983 ft 175 kts 106°
2026-05-05 21:54 -3.74978 -38.63187 1765 ft 163 kts 107°
2026-05-05 21:54 -3.75263 -38.62125 1564 ft 153 kts 106°
2026-05-05 21:54 -3.75527 -38.61137 1371 ft 141 kts 106°
2026-05-05 21:55 -3.75769 -38.60231 1195 ft 128 kts 106°
2026-05-05 21:55 -3.75992 -38.59396 1037 ft 122 kts 104°
2026-05-05 21:55 -3.76211 -38.58576 896 ft 122 kts 105°
2026-05-05 21:55 -3.76428 -38.57761 751 ft 121 kts 105°
2026-05-05 21:56 -3.76646 -38.56945 611 ft 122 kts 103°
2026-05-05 21:56 -3.76863 -38.56127 449 ft 121 kts 102°
2026-05-05 21:56 -3.77075 -38.55314 322 ft 123 kts 104°
2026-05-05 21:56 -3.77302 -38.54491 165 ft 122 kts 104°
2026-05-05 21:57 -3.77512 -38.53708 100 ft 98 kts 105°
2026-05-05 21:57 -3.77638 -38.53234 96 ft 60 kts 104°
2026-05-05 21:57 -3.77735 -38.52864 98 ft 51 kts 105°
2026-05-05 21:57 -3.77805 -38.52613 99 ft 27 kts 115°
2026-05-05 21:58 -3.77839 -38.52611 97 ft 10 kts 228°
2026-05-05 21:58 -3.77892 -38.52695 99 ft 15 kts 243°
2026-05-05 21:58 -3.77905 -38.52795 95 ft 15 kts 271°
2026-05-05 21:58 -3.77882 -38.52900 95 ft 16 kts 284°
2026-05-05 21:59 -3.77850 -38.53016 99 ft 19 kts 285°
2026-05-05 21:59 -3.77812 -38.53159 96 ft 23 kts 284°
2026-05-05 21:59 -3.77770 -38.53316 96 ft 24 kts 285°
2026-05-05 21:59 -3.77725 -38.53484 98 ft 26 kts 285°
2026-05-05 22:00 -3.77683 -38.53637 98 ft 20 kts 284°
2026-05-05 22:00 -3.77674 -38.53775 100 ft 20 kts 244°
2026-05-05 22:00 -3.77727 -38.53899 98 ft 16 kts 273°
2026-05-05 22:00 -3.77704 -38.53998 97 ft 12 kts 284°
2026-05-05 22:01 -3.77684 -38.54077 97 ft 11 kts 285°
2026-05-05 22:01 -3.77663 -38.54155 97 ft 13 kts 284°
2026-05-05 22:01 -3.77640 -38.54237 96 ft 11 kts 287°
2026-05-05 22:01 -3.77655 -38.54285 99 ft 6 kts 204°
2026-05-05 22:02 -3.77697 -38.54277 97 ft 7 kts 153°
2026-05-05 22:02 -3.77736 -38.54241 99 ft 9 kts 133°
2026-05-05 22:02 -3.77771 -38.54201 99 ft 4 kts 131°
2026-05-05 22:02 -3.77775 -38.54196 95 ft 0 kts 131°